Zurück zum Katalog

FENGYUN 1C DEB

AktivPO
NORAD 31499·DEBRIS·🇨🇳 China

Gestartet May 10, 1999 von Taiyuan Satellite Launch Center

Loading…

Nächste Überflüge (nächste 24 Stunden)

TLE

AktuellSource: Space-Track

Epoche: Sep 14, 2026, 03:44 UTC

1 31499U 99025BWN 26257.15609142  .00004295  00000-0  20325-2 0  9995
2 31499  97.6613  27.7805 0253423 117.3918 245.3282 14.04557020662321

Verfolge FENGYUN 1C DEB in Echtzeit mit AllMySat

Download on the App Store